Home   Weather   Ashgabat   Past weeks

Flag for Turkmenistan Past Weather in Ashgabat, Turkmenistan — Yesterday and Last 2 Weeks

Now
75 °F

Clear.


Feels Like: 77 °F
Forecast: 73 / 100 °F
Wind: 3 mph from Northeast

Location: Ashgabat

Current Time: Sep 1, 2016 at 2:52:54 AM

Latest Report: Sep 1, 2016 at 2:00 AM


Visibility: 6 mi

Pressure: 29.74 "Hg

Humidity: 36%

Dew Point: 46 °F

Location of AshgabatLocation

Past Weather in Ashgabat — Graph

°F

Ashgabat Temperature Yesterday

Maximum temperature yesterday: 99 °F (at 4:00 PM)
Minimum temperature yesterday: 72 °F (at 7:00 AM)
Average temperature yesterday: 87 °F

High & Low Weather Summary for the Past Weeks

 TemperatureHumidityPressure
High100 °F (Aug 29, 3:00 PM)38% (Aug 31, 7:00 AM)30.01 "Hg (Aug 31, 7:00 AM)
Low64 °F (Aug 26, 7:00 AM)7% (Aug 27, 3:00 PM)29.74 "Hg (Aug 18, 5:00 PM)
Average85 °F20%29.89 "Hg
* Reported Aug 17 1:00 AM — Sep 1 1:00 AM, Ashgabat, Weather by CustomWeather, © 2016

Note: Actual official high and low records may vary slightly from our data, if they occured in-between our weather recording intervals... More about our weather records

Advertising

Ashgabat Weather History for the Previous 24 Hours

Scroll right to see more
 ConditionsComfort  
Time TempWeatherWind HumidityBarometerVisibility
1:00 AM
Thu, Sep 1
75 °FClear.1 mph34%29.77 "HgN/A
12:00 AM77 °FClear.2 mph30%29.77 "Hg4 mi
11:00 PM
Wed, Aug 31
81 °FHaze.3 mph24%29.77 "Hg2 mi
10:00 PM84 °FClear.2 mph22%29.77 "Hg5 mi
9:00 PM86 °FClear.7 mph22%29.77 "Hg6 mi
8:00 PM91 °FPassing clouds.5 mph16%29.77 "Hg6 mi
7:00 PM95 °FClear.7 mph13%29.74 "Hg6 mi
6:00 PM97 °FPassing clouds.9 mph12%29.77 "HgN/A
5:00 PM99 °FPassing clouds.7 mph12%29.77 "HgN/A
4:00 PM99 °FPassing clouds.8 mph12%29.77 "HgN/A
3:00 PM97 °FPassing clouds.3 mph13%29.80 "HgN/A
2:00 PM97 °FPassing clouds.7 mph13%29.83 "HgN/A
1:00 PM97 °FPassing clouds.6 mph13%29.83 "HgN/A
12:00 PM95 °FPassing clouds.5 mph13%29.86 "HgN/A
11:00 AM95 °FClear.5 mph13%29.86 "HgN/A
10:00 AM91 °FClear.6 mph17%29.86 "HgN/A
9:00 AM86 °FClear.2 mph24%29.86 "Hg5 mi
8:00 AM81 °FClear.2 mph28%29.86 "Hg6 mi
7:00 AM72 °FClear.3 mph38%29.86 "Hg6 mi
6:00 AM73 °FClear.3 mph33%29.86 "HgN/A
5:00 AM73 °FClear.3 mph36%29.83 "Hg5 mi
4:00 AM77 °FClear.3 mph32%29.86 "Hg6 mi
3:00 AM81 °FHaze.2 mph26%29.86 "Hg2 mi
2:00 AM82 °FHaze.2 mph26%29.86 "Hg3 mi
Weather by CustomWeather, © 2016

See weather overviewHow to use our weather pages